Location: *
(53.9002°N, 27.5624°E)
Time: 10:05:37
(UTC+00:00)

Cosmos 1437 - Pass Details

Date: 12 November 2019
Orbit: 380 x 384 km, 81.2° (Epoch: 15 December)

Event Time Altitude Azimuth Distance (km) Brightness Sun altitude
Rises 15:33:37 0° 342° (NNW) 2,286 6.5 -11.3°
Reaches altitude 10° 15:35:39 10° 337° (NNW) 1,426 5.5 -11.6°
Maximum altitude 15:38:39 50° 261° (W) 503 3.6 -12.1°
Drops below altitude 10° 15:41:39 10° 185° (S) 1,415 5.6 -12.5°
Sets 15:43:40 0° 180° (S) 2,265 6.6 -12.8°
